Погода в Сизой

Россия / Красноярский край     53°00′09″N   91°31′00″E
темп.,
°C
ветер,
м/с
пор.,
м/с
влажн.,
%
обл.,
%
осадки,
мм/ч
давл.,
гПа
погр.,
м
22 января, пт
пт2201:00−7ю2289100 0.8 101738
04:00−7ююв2287100 0.0 101448
07:00−8ююз1284100 0.0 101244
10:00−7ю337996 0.0 101079
13:00−2ю237598 0.0 1008150
16:00−1юз1286100 0.0 1009205
19:00−3юз2394100 0.4 1012128
22:00−4з1296100 0.4 101366
23 января, сб
сб2301:00−6зсз2497100 1.3 1016254
04:00−8зсз2695100 0.6 1019316
07:00−9з3784100 1.0 1024366
10:00−12зюз3780100 0.0 1028334
13:00−10з3768100 0.0 1030857
16:00−12сз2478100 0.0 1030206
19:00−15ю1185100 0.0 103320
22:00−15ююз2285100 0.0 103429
24 января, вс
вс2401:00−14ю1183100 0.0 103421
04:00−16ю1184100 0.0 103420
07:00−16ююз2283100 0.0 103421
10:00−14ю1184100 0.0 103446
13:00−11в0177100 0.0 1033336
16:00−12св1189100 0.0 103237
19:00−15ю1188100 0.0 103320
22:00−16з0187100 0.0 103320
25 января, пн
пн2501:00−15сз1397100 0.8 1034222
04:00−16ююз1197100 0.4 103522
07:00−18зюз2489100 0.6 1037162
10:00−19зюз2681100 0.1 1039448
13:00−18зсз3572100 0.1 1039662
16:00−18зсз2575100 0.0 1040584
19:00−22юз1188100 0.1 104322
22:00−24юз1188100 0.0 104320
26 января, вт
вт2601:00−25ююз1189100 0.0 104320
04:00−25юз0093100 0.0 104322
07:00−27зюз0094100 0.0 104320
10:00−27ссз0095100 0.0 104429
13:00−24с2294100 0.0 1042200
16:00−25с1299100 0.0 1041141
19:00−29юв0199100 0.1 104419
22:00−30сз11100100 0.0 104519